Temp
17 17 17 18 18 18 18 18 18 18 18 18 17 17 17 17 17 17 17 17 17 17 17 17 17 17 17 17 17 17 17 17 17 17 17 17 17 17 18 18 17 18 18 18 18 18 18 18 18 18 18 18 18 18 19 19 19 19 19 19 19 19 18 18 16 16 16 17 17 17 16 16 16 16 16 15 15 15 15 15 15 15 15 14 14
17 17 17 17 18 18 18 18 18 18 18 17 17 17 17 17 16 16 17 17 17 17 17 17 17 18 18 18 17 17 17 17 17 18 18 18 18 18 18 18 18 18 18 18 18 18 18 18 18 18 18 18 18 18 19 19 19 19 19 18 18 18 18 18 17 16 16 16 17 17 16 16 16 16 16 16 16 15 15 15 16 16 15 15 15
18 17 17 17 17 17 17 18 18 18 17 17 17 17 17 17 17 17 17 17 17 17 18 18 18 18 18 18 18 17 17 17 17 18 17 17 18 18 18 18 18 18 18 18 18 18 18 17 17 17 17 18 18 18 19 19 19 19 19 18 18 18 18 18 18 17 16 16 16 16 16 16 16 16 16 16 16 16 16 16 16 16 15 15 15
18 18 18 17 17 17 17 17 18 17 17 17 17 17 17 17 17 17 17 17 17 18 18 18 18 18 18 18 18 18 18 17 17 17 17 17 18 18 18 18 18 18 18 18 18 17 17 17 17 17 17 17 18 18 18 18 18 18 18 18 18 18 18 18 18 18 17 17 17 17 16 16 16 16 17 17 16 16 16 16 16 15 15 15 15
19 19 18 17 17 17 17 17 17 17 17 17 17 17 17 17 17 17 17 17 18 18 18 18 18 18 18 18 18 18 18 17 17 17 17 17 17 17 17 17 18 18 18 18 18 17 17 17 17 17 17 17 17 17 18 18 18 18 18 18 18 18 17 17 17 18 18 17 17 17 17 17 17 17 17 17 16 16 16 16 16 15 14 14 14
19 19 18 17 17 17 17 17 17 17 17 17 17 17 17 17 17 17 18 18 18 18 18 18 18 18 18 18 18 18 18 18 18 18 17 17 17 17 17 17 18 18 18 18 18 17 17 17 17 17 17 17 17 17 17 17 17 17 17 17 17 17 17 17 17 17 17 17 17 17 17 17 17 17 17 17 16 16 16 15 15 14 14 14 14
19 18 18 17 17 17 17 17 17 17 17 17 17 17 17 17 17 18 18 18 18 18 18 18 18 18 18 18 18 18 18 18 18 18 17 17 17 17 17 17 17 17 17 18 17 17 17 17 17 17 17 17 17 17 17 17 17 17 16 16 16 17 17 17 17 17 17 17 17 17 17 17 17 17 17 16 16 16 15 14 14 14 14 14 13
19 18 18 17 17 18 17 17 17 17 17 17 17 17 17 17 17 18 18 18 18 18 18 18 18 18 18 18 18 18 18 18 18 18 17 17 17 17 17 17 17 17 17 17 17 17 17 17 16 16 16 16 16 16 16 16 16 16 16 16 16 16 16 17 17 17 16 17 17 17 17 17 17 16 16 16 15 15 14 14 14 14 14 13 13
18 18 18 17 17 18 17 17 18 17 17 17 17 17 17 17 17 17 18 18 18 18 18 18 18 18 18 18 19 18 18 18 18 18 18 17 17 17 17 17 17 17 17 17 16 16 16 16 16 16 16 16 16 16 16 16 16 16 16 16 16 16 16 16 16 16 16 16 16 17 17 17 17 16 16 15 15 15 14 14 13 13 13 13 13
15 16 16 17 17 18 17 17 17 17 17 17 17 17 17 17 17 17 18 18 18 18 18 18 18 18 18 18 19 19 18 18 18 18 18 17 17 17 17 17 17 16 16 16 16 16 16 16 16 16 16 16 16 16 16 15 15 16 15 15 15 15 16 16 16 16 16 16 16 16 16 16 16 16 16 15 15 14 14 13 13 13 13 12 12
14 14 14 16 17 17 17 17 17 17 17 17 17 17 16 17 17 17 18 18 18 18 17 18 18 18 18 18 18 19 18 18 18 18 18 18 17 17 16 16 16 15 15 15 15 15 15 15 16 16 16 16 15 15 15 15 15 15 15 15 15 15 15 15 15 15 15 15 16 16 15 15 15 15 15 14 14 13 13 12 12 12 12 12 12
15 15 15 15 17 17 17 17 16 16 16 16 16 16 16 16 16 17 17 17 17 17 17 17 17 18 18 18 18 18 18 18 18 18 18 18 17 17 16 15 15 15 15 15 15 15 15 15 15 15 16 16 15 15 15 14 15 15 15 15 15 14 14 15 15 15 15 15 15 15 14 14 13 14 13 13 12 12 12 12 12 11 11 11 11
17 17 16 16 17 17 17 17 16 16 16 16 16 16 16 16 16 16 16 16 16 16 16 16 17 17 17 17 17 17 16 17 18 18 18 17 17 16 16 15 15 15 15 15 15 15 15 15 15 15 15 15 15 14 14 14 14 14 14 14 14 14 14 14 14 14 14 14 14 13 13 13 12 12 12 12 12 12 11 11 11 10 10 10 10
17 17 17 17 17 17 17 17 16 16 16 16 16 15 15 15 16 16 16 15 16 16 16 16 16 16 16 16 16 15 15 16 16 17 17 17 17 16 16 15 15 15 15 15 15 15 14 14 15 15 15 15 14 14 14 14 14 14 14 13 13 13 13 13 13 13 13 13 13 13 12 12 12 11 11 11 11 10 10 10 10 9 9 9 9
16 16 16 16 16 17 17 17 17 17 17 16 16 15 15 15 15 15 15 15 15 15 15 15 16 16 16 15 15 15 15 15 16 16 16 16 16 16 15 15 14 14 14 15 15 15 14 14 14 14 14 14 14 14 14 14 14 13 13 13 12 12 12 12 12 12 12 12 13 12 12 12 11 11 11 11 10 10 10 9 9 9 9 9 9
15 14 14 15 15 15 16 16 16 16 17 17 17 16 16 16 16 16 15 15 15 15 15 15 15 16 15 15 15 14 14 15 16 15 15 16 16 15 15 14 14 14 14 14 14 15 14 14 14 14 14 14 14 14 14 13 13 13 12 12 11 12 12 12 12 12 12 12 12 12 12 11 11 11 10 10 10 10 9 9 9 8 8 8 8
13 13 14 14 14 14 15 15 15 15 16 16 16 16 16 16 16 16 16 16 15 15 15 15 15 15 15 15 15 15 14 14 15 15 15 15 15 15 15 14 14 13 14 13 13 14 14 14 14 14 13 13 13 14 13 13 13 13 12 11 11 11 11 11 11 11 11 11 11 11 11 11 10 10 10 10 9 9 9 9 8 8 8 7 8
12 12 13 13 13 13 14 14 14 15 15 15 15 15 15 16 16 16 16 16 16 16 15 15 15 15 15 15 15 15 14 14 14 14 14 14 14 14 14 14 13 13 13 13 13 13 13 13 13 13 13 13 13 13 13 13 13 13 12 12 11 11 11 11 11 11 11 11 11 11 10 10 10 10 9 9 9 9 9 8 8 7 7 7 7
12 12 12 12 12 12 13 14 14 14 14 14 14 14 15 15 15 16 16 16 16 16 16 16 15 15 15 15 15 14 14 14 14 14 14 14 14 14 14 13 12 13 13 13 12 12 13 13 13 13 13 12 12 13 13 13 13 13 12 12 11 11 11 11 11 11 10 10 10 10 10 10 9 9 10 9 9 9 9 8 8 7 7 7 7
11 11 11 11 12 12 13 13 14 14 14 14 14 14 14 14 14 15 15 15 16 16 16 16 16 15 15 15 15 15 14 14 14 14 14 14 14 14 13 12 12 12 13 12 11 11 12 12 12 12 12 12 12 12 12 13 13 13 13 12 12 11 11 10 10 10 10 10 10 10 10 9 9 10 10 9 9 9 9 8 8 7 7 7 7
10 10 11 11 11 12 12 12 12 12 12 13 13 13 13 14 14 14 15 15 15 16 16 16 16 16 15 15 14 14 14 14 14 15 14 14 13 13 12 11 11 12 12 11 11 11 11 11 11 11 12 12 12 12 12 12 13 13 13 12 11 11 10 10 10 10 10 10 10 10 10 10 10 10 9 9 9 8 8 7 7 7 6 6 6
9 9 10 10 10 10 10 11 11 11 11 12 12 12 13 13 13 14 14 14 15 15 15 16 16 16 16 15 14 13 13 13 14 14 14 14 13 13 12 11 11 11 11 10 10 10 10 9 9 10 11 11 11 11 12 12 12 12 12 11 11 10 10 10 10 10 10 10 10 10 10 10 10 10 10 9 8 7 7 7 7 6 6 6 6
9 9 9 9 9 9 9 10 10 10 10 11 11 12 12 12 13 13 13 14 14 14 15 15 15 16 16 16 15 14 13 13 13 14 14 14 13 13 12 11 11 11 10 10 10 9 9 9 9 9 10 11 11 11 11 11 11 11 11 10 10 10 10 10 10 10 10 10 10 9 9 9 9 9 9 9 8 8 8 7 7 6 6 6 6
9 9 9 9 9 9 9 9 9 9 9 10 10 11 11 12 12 13 13 13 14 14 14 15 15 15 15 15 15 15 15 13 12 13 14 13 13 13 11 10 10 11 10 10 10 9 9 9 9 9 10 10 11 11 11 11 11 10 10 10 10 10 10 10 10 10 9 9 9 9 9 9 9 9 8 8 8 7 7 7 6 6 6 5 5
9 9 9 9 9 9 9 9 9 9 9 9 9 10 10 11 11 12 12 13 13 14 14 15 15 15 16 15 15 15 15 14 13 13 13 13 12 12 11 10 10 11 11 10 9 9 10 9 9 9 10 10 10 10 10 10 10 10 10 9 9 10 9 9 9 9 9 9 9 9 9 9 8 8 7 7 7 6 6 6 5 5 5 5 4
9 9 9 9 9 9 9 9 9 9 9 9 9 9 9 10 10 11 12 12 13 13 14 14 15 15 15 16 15 15 15 13 12 12 13 12 12 11 10 10 11 11 11 10 9 9 10 9 9 9 9 9 9 9 9 9 9 9 9 9 9 9 9 9 9 8 8 9 9 8 8 8 7 7 7 6 6 6 6 5 5 4 4 4 4
8 8 8 8 8 8 8 8 8 8 8 8 9 9 9 9 9 10 11 12 12 13 13 14 14 15 15 15 15 14 14 12 10 10 11 11 11 10 10 10 11 11 10 9 9 9 9 9 9 9 9 9 9 9 9 9 9 9 9 8 8 8 8 8 8 8 8 8 8 7 7 7 6 6 6 6 6 6 5 5 4 4 3 3 3
7 7 7 7 7 7 7 7 7 8 8 8 8 9 9 9 9 9 10 10 11 11 11 12 12 13 14 14 13 13 12 11 10 10 10 10 10 9 10 11 11 10 10 9 9 9 9 8 8 8 8 8 8 8 8 8 8 8 8 8 8 8 8 8 7 7 7 7 7 6 6 6 6 6 6 6 5 5 4 4 3 3 3 3 2
6 6 6 6 6 6 6 6 6 7 7 7 7 8 8 8 9 8 8 9 9 9 9 10 10 11 11 11 11 11 11 10 10 11 10 9 8 8 9 9 10 10 10 10 9 8 8 8 8 8 8 7 7 7 8 8 8 8 8 8 8 8 7 7 7 7 7 6 6 6 6 5 5 5 5 5 4 4 3 3 3 2 2 2 2
6 6 6 6 6 6 6 6 6 6 6 6 6 7 7 7 8 8 8 8 8 8 8 9 9 10 9 9 10 10 9 9 10 10 11 10 9 8 8 8 8 9 10 10 9 8 7 7 7 7 7 7 7 7 7 8 8 8 8 8 8 7 7 7 7 6 6 6 5 5 5 5 5 5 5 4 4 3 3 3 2 2 2 2 2
5 5 5 5 5 5 5 5 5 5 5 5 5 6 6 7 7 7 7 7 8 8 8 8 9 9 9 9 9 9 9 9 9 9 10 10 9 9 9 8 8 8 8 8 8 7 7 7 6 7 7 7 7 8 8 8 8 7 7 7 7 7 7 7 6 6 5 5 5 5 5 5 5 5 4 4 3 3 3 3 2 2 2 2 2
4 4 4 4 4 4 4 4 4 4 4 4 5 5 5 6 6 6 7 7 7 8 8 8 8 9 9 9 9 10 10 10 10 9 8 9 9 9 9 9 8 7 7 8 8 7 7 7 7 7 7 8 8 8 8 8 8 7 7 7 7 7 7 6 6 6 5 5 5 5 5 5 5 4 4 3 3 3 3 2 2 2 2 2 1
4 4 4 3 3 3 3 3 3 3 3 4 4 4 4 5 5 5 6 6 7 7 7 8 8 8 9 9 9 9 10 10 10 9 8 7 7 8 8 8 8 7 7 8 8 7 7 8 8 8 8 8 9 9 8 8 8 8 7 7 7 7 6 6 6 6 5 5 5 5 5 5 4 4 4 3 3 3 2 2 2 2 2 1 1
3 3 3 3 3 3 3 2 2 2 3 3 3 3 3 4 4 4 4 5 6 6 7 8 8 7 8 8 8 9 9 9 10 10 9 7 7 7 6 6 6 6 7 8 8 8 8 8 8 8 9 9 9 9 8 8 8 8 7 7 7 7 6 6 6 5 5 5 5 5 5 5 4 4 4 3 3 3 2 2 2 2 1 1 1
4 3 3 3 3 3 2 2 2 2 2 2 2 2 3 3 3 3 3 4 5 5 6 7 7 7 7 7 8 8 8 8 9 9 8 8 7 7 6 5 6 7 8 8 9 8 8 9 9 9 9 9 8 8 8 8 7 7 7 7 7 7 6 6 5 5 4 4 4 5 5 4 4 4 4 3 3 3 2 2 2 1 1 1 0
4 4 3 3 3 3 2 2 2 2 2 2 2 2 2 2 2 2 3 3 4 5 6 6 6 6 6 6 7 7 7 7 7 7 7 7 7 6 5 5 6 7 8 8 9 9 9 9 9 9 9 8 8 8 8 7 7 7 7 7 7 6 6 5 5 5 4 4 4 5 5 4 4 4 3 3 3 3 2 1 1 1 0 0 -0
4 4 3 3 3 3 2 2 2 2 2 2 2 2 2 2 2 2 3 3 4 5 5 5 5 5 4 5 5 6 6 6 6 6 6 6 6 5 5 5 5 6 7 8 8 9 9 9 9 8 8 7 7 7 7 7 7 7 7 6 6 6 5 5 5 4 4 4 4 5 4 4 4 4 3 3 3 2 1 1 0 0 0 -0 -0
4 4 3 3 3 3 2 2 2 2 1 1 2 2 2 2 2 2 3 3 4 5 5 5 5 4 4 4 4 5 5 5 5 5 5 5 5 5 5 5 5 6 7 8 8 8 9 9 8 8 7 7 7 7 7 7 7 6 6 6 6 6 5 5 5 5 4 4 4 4 4 4 3 3 3 2 2 1 1 0 0 0 -0 -0 -0
4 4 3 3 3 2 2 2 2 2 2 2 2 2 2 2 2 2 2 3 4 5 5 5 5 5 4 3 3 3 4 4 4 4 4 4 5 5 5 6 6 6 6 7 7 8 8 8 8 8 7 7 7 7 7 6 6 6 6 6 6 6 5 5 5 5 4 4 4 4 3 3 2 2 2 2 1 1 0 0 0 0 -0 -0 -0
4 4 3 3 2 2 2 2 2 2 2 2 2 2 2 2 2 2 2 3 4 4 5 5 5 5 4 3 3 3 3 3 3 3 3 3 3 4 5 5 5 5 6 6 6 7 8 8 7 7 7 7 7 6 6 6 6 6 6 6 6 6 5 5 5 4 4 4 3 3 3 2 2 2 2 2 1 1 1 1 0 0 0 0 0
4 4 3 3 2 2 2 2 2 2 2 2 2 2 2 2 2 2 3 3 4 4 4 4 4 4 4 3 3 4 4 3 3 2 2 2 3 3 4 4 5 5 5 5 6 7 8 7 7 7 7 7 6 6 6 6 6 6 6 6 5 5 5 5 4 4 3 3 3 2 2 1 1 2 2 2 1 1 1 0 0 0 0 0 0
3 3 3 3 2 2 2 2 1 1 1 1 1 2 2 2 3 3 3 4 3 4 4 3 2 3 3 3 3 4 5 4 3 2 2 3 3 3 4 4 4 5 5 6 7 7 7 7 7 7 6 6 6 6 5 5 6 6 5 5 5 4 4 4 3 3 2 2 2 2 1 1 1 2 2 1 1 1 0 1 1 1 1 1 0
3 3 3 2 2 2 2 2 2 2 1 1 1 2 2 3 3 4 4 4 3 3 3 2 2 2 2 3 3 4 4 4 3 3 2 3 3 4 4 3 3 4 5 6 7 7 6 6 6 6 6 5 5 5 5 5 5 5 4 4 4 3 3 3 2 2 2 2 1 1 1 1 1 1 1 1 0 0 1 1 1 1 1 0 0
3 3 2 2 2 2 2 2 2 2 2 2 2 3 4 4 5 5 5 4 4 3 3 2 2 2 2 2 3 3 3 3 3 3 3 3 3 4 4 3 3 4 5 6 6 6 6 5 5 5 5 5 5 4 4 4 4 3 3 3 2 2 2 2 2 2 2 1 1 1 0 0 0 0 1 0 0 1 1 1 1 1 1 1 1
3 3 2 2 3 3 3 3 3 3 3 3 3 4 4 5 5 5 5 4 4 3 3 3 3 3 2 2 2 2 2 2 2 3 3 3 3 4 4 4 4 4 4 5 5 5 5 5 4 4 4 4 3 3 3 3 3 3 2 2 2 2 2 1 1 1 1 1 1 0 -0 -0 -0 -0 0 0 0 1 1 1 1 1 1 1 1
3 3 2 2 3 3 3 3 3 3 3 4 4 4 4 5 5 5 5 5 4 4 3 3 3 2 2 2 1 1 2 2 2 2 2 3 3 3 3 3 3 3 4 4 4 4 4 4 3 3 3 3 3 3 3 2 2 2 2 2 1 1 1 1 1 1 1 1 1 0 -0 -1 -1 -0 0 0 0 1 1 1 1 1 1 1 1
4 3 2 2 2 3 3 2 3 3 3 3 4 4 4 4 5 5 5 5 4 4 3 2 2 1 1 1 1 1 1 1 1 1 1 2 2 2 3 3 3 3 3 3 3 3 3 3 3 3 2 2 2 2 2 2 1 1 1 1 1 1 1 1 1 1 1 1 0 0 -0 -0 -1 -0 0 0 0 1 1 1 1 1 2 1 1
4 3 2 2 2 2 2 2 3 3 3 3 3 3 3 4 4 5 5 4 4 4 3 2 1 1 1 0 0 0 0 0 0 0 1 1 1 1 2 2 3 3 3 3 2 2 2 2 2 2 2 2 2 1 1 1 1 1 1 1 1 1 1 1 1 1 1 1 0 0 0 -0 -0 -0 0 0 1 1 1 1 1 2 2 2 1
4 3 3 2 2 1 2 2 2 3 3 3 2 2 2 2 3 3 4 4 4 3 3 2 1 0 0 -0 0 0 0 0 0 0 0 1 1 1 2 2 2 2 2 2 1 2 2 1 1 1 1 1 1 1 1 1 1 1 1 1 1 1 1 1 1 1 1 1 0 0 -0 -0 -0 -0 -0 0 1 1 1 1 2 2 2 2 2
4 4 3 3 2 1 1 1 1 2 2 2 2 2 2 1 1 2 3 3 3 3 3 2 1 0 -0 -0 -0 0 0 0 0 0 0 1 1 1 1 1 2 2 2 1 1 1 1 1 0 0 0 -0 0 1 1 1 1 1 1 1 1 1 1 1 1 1 1 1 0 0 0 -0 -0 -0 0 1 1 1 1 1 2 2 2 2 1
5 4 4 3 3 2 1 0 0 0 1 1 1 1 1 1 1 1 2 2 2 2 2 1 1 0 0 -0 -0 0 0 0 0 0 0 1 1 1 1 2 2 2 2 1 1 1 1 0 0 -0 -0 -1 -0 1 1 1 1 1 1 1 1 1 1 1 1 1 1 1 0 0 0 0 0 0 1 1 1 1 1 2 2 2 2 2 1
Height
788 790 792 793 795 797 799 801 803 804 806 807 808 809 811 812 813 815 816 817 818 819 820 821 822 823 825 826 827 829 830 831 832 832 833 834 835 836 837 838 839 840 841 842 843 844 844 845 845 846 846 847 847 848 848 848 848 848 849 849 850 851 852 852 854 857 859 859 860 861 862 863 863 863 863 864 863 863 863 863 862 861 860 860 860
788 791 793 794 796 798 800 802 803 805 806 807 808 809 811 812 813 815 816 817 818 819 820 821 822 823 825 826 828 829 830 831 832 833 833 834 835 836 837 838 839 840 841 842 843 844 845 846 846 846 847 847 848 848 849 849 849 849 849 850 850 851 852 853 854 855 857 859 859 860 861 861 862 862 862 863 863 862 862 862 861 860 860 859 859
789 791 793 795 797 798 800 802 804 805 806 807 809 810 811 812 813 814 815 817 818 819 820 821 822 824 825 826 828 829 831 831 832 833 834 835 835 836 837 838 840 841 842 843 844 845 846 846 847 847 848 848 848 849 849 849 850 849 849 850 851 851 852 853 854 855 856 857 858 859 859 860 860 860 860 860 861 862 862 862 861 861 861 860 859
790 792 794 795 797 799 801 803 805 806 806 808 809 810 811 812 813 814 815 816 817 818 820 821 823 824 825 826 828 829 831 832 833 834 835 836 836 837 838 839 840 841 842 843 844 845 846 847 848 848 849 849 849 849 849 850 850 850 850 851 851 852 853 854 854 855 856 856 857 858 858 859 859 860 859 858 859 860 861 860 860 861 861 861 859
790 792 794 795 797 799 802 804 805 806 807 808 809 811 812 812 813 814 815 816 817 818 820 822 823 824 825 826 828 829 830 832 833 834 835 836 837 838 839 840 841 842 843 844 845 846 847 847 848 849 849 850 850 850 850 851 851 851 851 851 852 852 853 854 854 854 855 856 857 857 858 858 858 859 858 858 858 858 858 859 859 859 859 858 859
790 791 793 795 798 800 802 804 805 806 807 809 810 811 812 813 813 814 815 816 818 819 820 822 823 824 825 826 827 828 830 832 833 834 836 837 838 839 840 841 842 843 843 844 845 846 847 848 849 849 850 850 850 851 851 851 851 851 851 852 853 853 854 854 854 854 855 855 856 856 857 857 857 857 857 857 858 857 857 857 857 857 857 857 857
789 791 794 796 798 800 802 804 805 806 808 809 810 811 812 813 814 814 815 816 818 819 820 822 823 824 825 826 827 828 829 831 833 834 835 836 838 839 840 841 842 843 843 844 845 846 847 848 848 849 849 850 851 851 851 852 852 852 852 852 853 854 854 854 853 854 855 855 855 855 855 855 855 855 856 856 857 856 856 856 856 856 857 856 856
789 792 794 796 798 800 802 804 805 806 808 809 811 812 812 813 814 815 816 816 818 819 821 822 823 824 825 826 827 828 829 830 831 833 835 836 838 839 840 841 842 842 843 844 844 845 845 846 847 847 848 849 851 851 852 852 852 853 853 852 853 853 853 853 853 853 854 854 854 854 854 854 854 854 854 855 855 855 855 855 856 856 856 856 856
790 792 794 796 798 800 802 804 805 807 808 809 811 811 812 813 814 815 816 817 818 819 820 822 823 824 824 825 826 827 828 829 830 832 834 836 837 839 840 841 841 842 843 843 843 843 844 845 845 847 848 849 850 851 851 852 852 852 853 853 853 853 853 853 853 853 853 853 853 853 853 853 853 853 853 853 853 854 854 855 855 855 855 854 854
795 795 795 797 799 800 802 804 805 807 808 809 811 811 812 813 814 815 816 817 818 819 820 822 822 823 824 824 825 825 826 828 830 831 833 835 837 838 839 840 840 841 841 841 842 843 843 844 844 846 847 848 849 850 850 851 851 851 852 852 852 852 852 853 853 853 854 853 853 853 852 852 852 852 853 852 852 853 853 854 854 854 854 853 853
801 801 799 799 800 801 803 804 806 807 808 809 810 811 812 813 814 815 816 817 818 819 820 821 821 822 823 823 824 825 826 828 829 831 833 834 836 837 838 839 839 839 840 840 841 842 842 842 843 843 844 845 847 848 848 849 849 849 850 850 851 851 852 852 852 853 853 853 852 852 852 852 852 852 852 852 851 852 853 854 854 854 853 853 852
803 804 803 802 802 803 805 806 807 808 809 810 811 811 812 813 814 815 816 817 818 818 819 820 820 821 822 822 824 825 826 828 830 832 833 833 835 835 836 837 837 838 839 839 840 840 840 841 841 841 841 842 844 845 846 847 847 847 847 848 848 849 850 851 851 851 852 852 852 852 851 851 851 851 852 851 851 852 852 853 853 853 853 853 852
803 804 804 805 805 805 806 807 808 809 809 810 810 811 811 812 813 814 814 815 817 817 818 819 819 820 821 822 824 825 827 829 830 831 831 832 833 833 834 835 836 836 836 837 838 838 838 839 839 839 839 839 841 843 844 844 845 845 845 846 846 847 848 849 850 850 850 851 851 851 851 851 851 851 852 852 852 852 852 852 853 853 852 852 852
805 805 806 806 807 807 808 808 809 810 810 810 811 812 813 813 814 814 814 815 816 817 817 817 818 819 820 821 822 822 826 829 830 830 830 831 831 832 833 834 834 835 835 835 836 836 836 837 837 837 836 837 839 841 842 842 843 843 844 844 845 845 846 847 848 848 849 850 851 851 851 851 851 851 852 852 851 852 852 852 852 852 852 851 851
807 808 809 809 809 809 809 810 811 812 812 813 814 815 815 815 816 816 816 816 816 816 816 816 816 817 818 820 820 820 823 826 827 827 829 829 829 830 831 831 832 833 834 834 834 834 834 834 834 835 834 835 837 839 839 840 841 842 842 843 843 844 844 845 846 847 848 849 849 850 850 851 851 851 851 851 851 852 852 852 852 851 850 850 849
811 812 812 812 812 812 812 812 813 813 814 814 814 815 815 815 815 815 815 815 815 814 814 814 814 815 816 817 817 818 820 822 823 824 825 827 827 828 828 829 830 831 832 833 833 832 832 832 833 833 832 833 836 838 837 838 839 840 841 841 842 842 843 844 845 846 847 848 848 849 850 850 851 851 851 851 851 851 851 851 851 850 849 849 848
813 814 814 814 814 814 814 814 814 815 815 815 815 814 814 814 814 814 814 814 813 813 813 812 812 812 813 813 814 815 816 818 820 821 822 824 824 824 825 826 827 828 830 831 831 831 830 830 831 831 831 832 836 838 837 837 839 839 840 840 841 842 843 844 845 846 847 847 848 849 849 850 850 850 851 851 850 850 850 849 849 849 849 848 847
815 815 815 816 816 816 815 815 815 815 816 816 816 814 813 813 812 812 812 812 812 812 812 811 811 810 810 810 811 812 814 815 817 819 819 820 821 821 822 823 823 825 826 827 828 829 828 827 828 829 830 832 836 837 836 837 838 838 839 839 840 841 842 843 844 845 846 847 848 848 849 849 850 850 850 850 849 849 849 849 848 848 848 848 847
816 816 816 816 816 816 816 816 816 816 817 817 816 815 814 813 812 811 811 811 810 810 810 809 809 808 808 808 809 810 811 813 814 815 815 816 817 818 819 820 821 822 823 823 825 825 825 825 825 826 828 831 834 834 835 836 836 837 838 839 840 840 841 843 844 845 846 847 847 848 848 848 849 849 849 849 849 848 848 848 848 847 847 847 846
817 817 817 817 817 817 817 817 817 817 817 816 816 815 814 813 812 811 811 810 809 809 808 808 807 807 806 807 807 808 809 809 809 810 810 811 813 814 815 816 818 819 820 820 822 823 823 823 823 823 825 828 831 833 833 834 835 835 836 838 839 840 841 842 844 845 846 847 847 847 847 847 848 848 848 848 848 847 847 847 847 847 847 846 845
819 819 819 819 819 819 818 818 817 817 817 816 815 814 814 813 812 811 810 809 808 807 806 806 805 805 804 804 804 805 806 806 806 806 806 807 808 809 811 814 816 817 818 820 820 821 821 821 822 822 823 825 829 831 832 832 833 833 835 837 838 839 841 843 844 845 846 846 846 846 846 846 847 847 848 847 847 847 847 847 847 847 846 846 845
820 820 820 820 820 819 818 818 817 817 816 815 814 813 813 812 811 810 809 808 806 805 804 803 802 802 802 801 801 802 804 804 804 804 804 804 805 806 808 810 812 814 815 818 819 820 821 823 825 825 825 826 828 830 830 831 832 833 834 836 838 839 841 842 843 844 845 845 845 845 845 846 846 847 847 847 846 846 847 846 846 846 845 845 844
820 820 820 820 819 818 818 817 817 816 815 814 814 812 811 810 809 808 807 805 804 803 801 801 800 799 798 798 797 798 799 800 800 801 801 802 803 804 805 807 809 811 812 814 816 819 822 825 827 828 828 828 828 829 829 830 831 833 834 836 837 839 840 841 842 843 844 844 844 844 844 845 846 847 847 846 846 846 846 846 845 844 844 843 842
821 820 820 820 819 818 818 817 816 815 814 813 812 810 809 809 807 806 805 803 802 801 799 798 797 795 794 793 793 793 794 794 795 797 797 799 800 801 803 805 807 809 811 813 815 818 820 823 827 830 830 829 828 828 829 829 831 833 834 836 837 838 839 840 841 842 843 843 843 843 844 845 846 846 846 845 845 846 846 845 844 843 842 840 840
821 821 821 820 819 819 818 816 816 815 813 813 811 809 808 807 805 804 803 801 800 798 797 796 794 792 791 789 789 789 790 790 791 792 794 796 797 799 801 802 804 806 809 812 814 817 818 820 826 830 831 829 828 828 828 829 831 833 834 835 837 838 839 840 840 841 841 841 842 843 844 845 845 845 845 845 845 845 844 843 842 841 840 838 838
821 821 820 819 819 818 817 815 815 813 812 811 810 808 807 806 804 803 801 800 799 797 795 793 791 790 788 787 786 786 786 786 787 788 789 791 794 796 798 799 801 804 806 809 812 814 816 817 821 826 829 829 827 827 827 829 830 832 834 835 837 838 839 839 839 839 840 840 841 842 843 844 844 844 844 844 844 844 843 842 841 839 838 838 837
820 820 819 819 818 817 815 814 813 812 811 810 808 807 806 805 804 802 800 799 797 795 793 792 790 788 786 784 783 782 783 784 785 787 789 789 790 792 794 796 798 800 802 806 810 812 813 815 818 823 825 826 826 826 827 828 829 831 833 835 837 838 838 838 838 838 839 840 841 842 843 843 843 844 844 844 843 843 842 840 839 839 838 838 837
820 820 819 818 817 816 815 814 812 811 810 808 807 805 804 803 802 800 799 798 796 794 793 791 790 788 784 782 781 780 781 781 782 785 789 790 790 790 790 791 792 794 797 802 807 810 812 813 817 820 822 823 824 825 826 828 829 831 833 835 836 837 837 837 837 838 839 840 841 842 842 843 844 844 843 842 842 841 840 839 839 839 838 838 837
820 820 819 818 817 816 815 813 812 811 809 807 806 804 803 802 800 798 797 796 796 794 793 791 790 788 785 782 780 780 780 781 782 783 786 788 790 790 790 790 789 789 793 798 802 806 809 811 814 817 819 821 822 824 826 827 829 831 832 834 835 835 836 836 837 838 839 840 841 842 843 843 843 842 842 841 840 840 839 839 839 839 838 838 837
820 819 818 817 816 815 814 813 812 810 809 807 805 803 801 800 799 797 795 794 793 792 791 789 788 788 786 784 781 780 780 781 782 783 784 785 788 790 792 794 793 790 790 793 797 801 805 809 813 815 817 819 821 823 825 826 828 829 831 832 833 834 835 836 837 838 839 840 841 842 842 842 842 841 841 840 839 839 839 839 839 838 838 837 837
819 818 817 816 815 814 813 812 811 809 808 806 804 802 800 798 797 796 794 792 790 789 787 786 786 786 785 784 782 781 780 780 781 782 782 783 785 787 788 792 795 795 793 792 794 799 803 808 812 815 816 818 820 822 823 825 827 828 830 831 832 833 834 836 837 838 839 840 841 841 841 841 841 840 840 839 838 838 838 838 838 838 837 837 836
818 817 816 815 814 814 813 811 810 809 807 805 804 802 799 797 795 793 792 790 789 787 785 784 783 783 782 782 781 780 780 780 781 782 782 782 783 783 784 786 790 795 795 793 793 797 801 806 810 813 815 817 819 821 823 824 826 827 828 829 831 832 834 835 836 838 839 839 840 840 840 840 840 839 838 838 837 837 837 837 837 837 836 836 836
817 816 815 814 813 812 811 810 808 807 805 804 802 801 799 797 794 792 790 789 787 786 784 782 781 780 779 779 778 778 778 779 779 780 782 784 785 784 784 785 788 793 794 791 792 796 801 805 808 811 814 816 818 820 822 824 825 827 827 829 830 832 834 835 836 837 838 838 839 839 839 839 838 837 837 837 837 837 837 837 837 836 836 835 835
815 814 813 812 811 810 808 807 806 805 804 802 801 799 798 797 794 792 791 788 786 785 784 781 779 778 777 776 776 776 776 776 777 777 779 782 786 789 790 789 792 796 795 790 791 796 801 804 807 810 813 815 817 819 821 823 825 826 827 829 830 832 833 834 835 836 837 837 838 838 838 837 837 837 837 837 837 837 837 836 836 836 835 835 834
813 812 811 810 808 807 806 805 804 802 801 800 799 798 797 795 794 793 791 790 788 786 784 782 780 777 776 775 775 775 775 775 775 776 777 779 782 788 792 792 793 796 794 790 791 796 801 804 807 810 812 814 816 819 821 823 825 826 827 829 830 831 832 834 834 835 836 836 837 837 837 836 836 837 837 836 836 836 836 836 836 835 835 834 834
811 810 809 808 807 805 804 802 801 799 798 798 797 797 796 794 793 792 791 790 788 786 784 783 780 778 777 776 776 776 776 776 775 776 778 779 780 784 790 793 794 794 791 789 791 796 800 804 807 809 811 814 816 819 821 823 824 826 827 829 830 831 832 833 834 835 835 835 836 836 836 836 837 837 836 836 835 835 835 835 835 835 834 834 833
810 809 808 807 806 804 802 801 799 797 796 796 795 795 794 794 793 792 790 789 787 785 783 782 781 779 777 778 778 777 777 778 778 778 780 781 782 784 790 795 796 794 791 790 793 797 800 804 807 809 811 814 816 819 821 823 824 825 827 828 829 830 831 832 833 834 834 835 835 835 836 836 836 836 836 835 834 834 834 835 835 834 834 833 832
809 808 807 806 805 803 801 800 798 797 796 795 795 794 794 793 792 791 789 788 786 784 782 781 780 779 779 778 779 779 779 780 781 781 782 783 785 787 791 796 797 796 793 793 796 799 801 804 806 808 811 814 816 818 820 822 823 825 827 828 829 830 831 832 832 833 834 834 835 835 836 836 836 835 835 834 834 834 834 834 834 833 832 831 831
809 808 807 805 804 802 801 799 798 797 796 795 794 794 793 792 791 790 789 787 785 783 781 779 778 779 779 779 779 780 780 781 782 783 783 784 786 790 792 794 796 797 797 798 799 801 804 806 807 809 812 814 815 817 819 821 823 825 827 828 829 830 831 831 832 832 833 834 835 835 835 835 835 835 835 834 834 834 834 834 833 832 831 830 829
808 807 806 804 803 802 800 798 797 796 795 795 794 793 792 791 790 789 787 785 783 781 780 779 778 777 778 779 779 780 781 782 783 783 785 786 788 790 792 793 795 798 800 801 802 803 805 806 808 810 812 814 815 817 819 821 823 825 827 828 829 830 831 831 831 832 833 834 835 835 835 835 835 835 834 834 834 834 833 833 832 831 830 829 828
808 807 805 804 802 801 800 798 797 796 795 795 794 793 792 790 789 787 786 784 782 781 780 779 778 778 778 779 780 782 783 783 783 784 785 787 788 790 791 792 795 798 800 802 803 803 804 806 808 811 813 814 816 818 819 821 824 826 827 828 829 829 830 831 831 832 833 835 835 835 835 835 834 834 834 834 833 833 833 832 831 830 829 828 827
808 807 805 804 802 801 800 798 797 796 795 794 794 792 791 789 787 786 785 783 782 781 780 780 780 781 781 781 782 782 783 783 783 784 786 787 788 789 791 793 796 799 801 802 801 802 803 805 808 811 813 815 816 818 819 822 824 826 826 827 828 829 830 830 831 832 834 835 836 835 835 835 834 834 834 833 833 832 832 831 830 829 828 828 827
807 807 806 804 803 801 800 798 797 796 795 794 793 791 790 788 786 785 785 784 783 782 782 783 783 783 783 783 783 783 783 784 784 785 787 788 790 791 793 795 798 800 802 802 801 802 804 807 809 812 814 816 817 819 821 823 824 825 826 827 828 828 829 830 831 833 834 835 836 836 835 834 834 833 833 833 832 831 830 829 829 828 828 827 826
807 806 806 805 803 802 800 799 797 795 794 793 792 790 789 788 787 785 785 786 786 785 785 785 785 784 784 784 784 784 784 785 787 788 789 790 792 793 795 797 800 801 802 802 803 805 806 808 810 813 815 816 818 820 821 823 824 826 827 828 828 828 829 830 832 833 834 834 835 835 835 834 834 833 833 832 831 830 829 829 829 828 827 826 825
807 806 806 805 804 802 801 799 797 795 794 793 792 791 789 788 787 786 786 786 787 787 787 787 786 786 786 786 786 786 787 788 789 790 791 792 793 795 796 799 801 802 803 804 806 808 809 811 813 814 816 818 820 821 822 824 825 826 827 828 829 829 830 831 832 833 833 834 834 834 834 834 833 832 832 831 831 830 829 829 828 827 826 825 823
807 807 806 806 804 803 801 800 798 796 795 793 792 791 790 789 788 788 787 787 787 787 788 788 788 788 789 789 789 790 790 790 792 793 794 795 796 797 799 801 802 804 805 807 809 811 812 813 815 816 818 820 822 823 824 825 826 827 828 829 830 831 831 831 832 832 833 833 834 834 833 832 832 831 831 831 830 829 829 829 828 827 825 824 822
807 807 807 806 805 804 802 801 800 798 796 795 794 793 791 791 790 789 789 788 788 788 789 790 790 791 791 792 793 793 793 794 795 796 798 799 800 800 802 804 805 807 809 810 812 813 814 815 817 818 820 821 823 824 825 826 827 828 829 830 831 831 831 832 832 832 832 833 833 833 833 832 831 831 830 830 829 829 829 828 827 826 824 823 822
808 808 808 807 806 805 804 802 801 800 799 798 797 795 794 793 792 791 791 791 790 791 792 793 794 794 794 795 796 796 796 798 799 799 801 802 803 804 806 807 808 810 811 812 814 815 816 818 819 820 821 822 823 825 826 827 828 829 830 830 831 832 832 832 832 831 832 832 833 832 832 831 831 830 830 829 829 829 828 827 826 825 823 822 821
808 808 809 808 807 806 805 804 803 802 801 800 799 798 797 796 795 794 793 793 793 793 794 796 797 798 798 798 799 800 800 801 802 803 804 806 807 808 809 810 811 812 813 814 816 817 818 819 821 822 823 824 825 826 827 828 829 830 830 830 831 832 833 832 832 831 831 832 832 832 831 831 830 830 829 829 829 828 827 826 825 824 823 822 821
808 808 809 809 808 807 807 806 805 804 803 803 802 801 800 799 798 797 796 796 796 796 797 798 800 801 801 802 802 803 804 804 805 807 808 810 811 811 812 812 813 815 816 817 818 819 820 821 822 823 824 825 826 827 828 829 829 830 830 830 831 832 833 833 832 831 831 831 832 832 831 831 830 829 829 829 828 828 827 826 825 824 823 822 822
808 808 808 809 809 808 808 807 807 806 805 805 804 803 802 802 801 800 799 799 799 799 800 801 802 803 804 805 806 806 807 808 809 810 812 813 813 814 814 815 816 817 818 819 820 821 822 823 824 825 826 826 826 827 828 829 829 830 830 830 831 832 833 833 832 831 831 831 832 831 831 830 829 829 829 829 828 827 826 825 824 824 823 822 822
Wind_Speed
11 12 12 13 13 13 14 14 14 15 15 15 15 14 15 14 13 11 10 9 9 9 9 8 8 8 8 7 7 7 7 7 8 9 9 10 11 12 12 12 13 13 14 13 13 13 12 11 10 10 9 9 8 7 8 7 6 5 5 7 8 7 10 16 14 9 7 7 8 5 3 2 2 4 4 3 7 7 2 5 7 8 5 7 12
10 11 11 11 12 12 13 13 14 15 16 16 15 15 15 14 13 13 11 10 10 9 8 8 8 8 8 8 7 7 7 7 7 8 9 10 11 11 12 13 13 14 13 12 12 12 11 10 9 8 7 5 4 6 7 3 3 5 7 9 9 6 5 7 10 13 10 8 8 6 4 2 1 5 4 3 5 6 4 5 6 6 4 6 10
9 10 10 11 12 13 13 13 14 16 17 16 15 15 15 14 13 13 11 9 10 10 9 8 8 8 8 8 7 7 7 7 7 7 9 10 10 9 12 14 13 12 12 11 11 10 10 9 7 6 6 3 3 5 4 2 4 7 8 8 7 5 4 5 5 10 13 10 8 8 9 4 1 6 5 5 5 3 6 5 7 6 4 4 9
9 10 11 12 12 12 12 12 13 15 16 16 15 14 13 13 12 11 11 10 10 10 10 9 8 8 9 8 8 8 8 7 7 8 9 9 8 9 11 13 12 11 11 12 11 10 9 8 7 6 5 4 4 4 2 4 4 5 4 3 3 3 1 3 4 3 7 8 6 7 8 4 3 5 4 2 2 2 7 8 6 3 4 7 11
9 10 11 11 11 12 12 12 13 15 14 14 14 12 12 12 11 11 11 11 10 10 10 10 9 9 9 9 9 9 8 8 7 8 9 8 8 9 10 11 11 10 10 11 11 10 9 8 7 6 4 3 3 2 2 3 4 4 2 1 4 7 5 0 3 3 2 2 1 2 3 2 5 4 3 4 1 3 6 6 3 6 9 12 13
10 11 11 11 11 12 13 13 13 13 13 13 13 12 11 11 12 12 12 11 11 10 10 11 10 10 10 9 10 10 9 9 9 9 10 9 9 9 10 10 10 9 9 10 9 9 7 6 6 6 4 3 2 2 2 1 3 4 5 6 3 6 5 0 2 3 1 1 1 2 3 4 5 6 6 7 8 6 5 5 7 9 12 15 14
12 13 13 13 13 13 13 13 12 11 10 11 12 10 9 9 10 11 11 11 12 11 10 11 11 11 11 10 10 11 11 11 10 11 10 10 11 10 10 10 9 8 8 8 8 8 6 5 5 4 3 2 2 3 3 2 4 5 6 6 4 1 2 3 3 5 4 3 4 4 4 6 7 7 7 7 8 6 6 8 10 11 12 13 13
14 14 15 15 14 14 13 12 11 11 10 10 11 10 8 8 9 10 10 11 12 12 11 11 11 11 12 12 12 12 13 13 13 13 12 11 11 10 10 11 9 9 9 8 8 9 8 7 6 4 3 2 1 2 3 4 4 4 5 7 7 6 6 4 3 6 8 6 6 6 7 8 7 8 8 4 3 4 7 9 9 11 12 11 13
10 12 14 13 12 12 12 10 9 10 10 9 9 9 8 8 9 10 10 10 11 12 12 11 12 12 12 13 13 14 15 15 15 15 15 14 13 12 12 12 11 11 10 7 9 11 10 9 6 4 4 4 3 4 5 6 6 5 5 6 6 6 8 6 5 6 7 8 10 11 8 7 6 5 4 0 2 2 5 6 6 8 10 12 16
5 7 9 10 9 9 9 8 8 8 8 7 7 7 7 8 9 10 10 10 10 11 11 12 13 13 14 14 14 16 16 17 17 17 17 17 16 15 14 13 13 14 12 9 10 11 11 10 8 6 5 6 6 8 9 10 11 11 10 10 9 8 7 7 7 8 8 10 12 11 6 5 6 4 2 1 1 1 2 3 5 9 12 13 15
6 5 4 6 8 8 7 7 7 6 5 5 5 6 6 7 8 7 8 8 9 10 11 12 13 13 14 15 15 16 17 17 17 17 18 18 17 17 16 14 14 16 15 11 10 12 12 11 10 8 7 8 10 11 13 13 13 14 14 14 14 13 11 9 8 9 8 9 10 8 6 6 7 5 3 5 6 4 4 5 8 11 12 12 12
5 2 2 4 7 7 7 6 5 5 6 6 6 6 7 8 9 9 9 9 9 9 10 12 13 13 14 15 16 15 16 17 18 17 19 20 19 19 18 17 15 16 17 12 10 12 12 11 10 11 10 11 13 14 14 13 11 11 12 13 14 15 15 12 9 7 6 4 5 6 4 5 7 5 4 5 5 5 7 9 10 10 11 11 12
8 7 6 7 6 5 6 6 4 2 3 3 3 4 5 7 9 10 10 10 11 11 11 12 14 15 17 17 14 9 7 12 16 19 21 22 22 21 20 18 18 19 20 16 13 13 13 12 12 11 9 11 13 13 13 14 12 10 9 10 12 14 14 14 12 9 7 4 1 4 3 3 5 4 4 6 7 8 9 10 9 9 11 13 15
13 14 13 12 11 9 8 6 5 4 2 1 1 3 6 7 9 11 11 12 14 14 13 14 16 17 16 14 12 9 8 11 15 18 21 23 24 23 21 17 17 19 20 19 17 15 15 14 14 13 11 13 14 13 14 16 13 10 9 9 10 11 11 13 14 13 11 9 4 1 1 1 2 2 4 7 8 7 6 7 9 11 14 16 18
16 18 18 17 17 15 13 10 7 4 2 1 2 5 7 8 9 10 11 12 14 13 13 15 18 19 17 14 14 13 14 17 19 19 21 24 26 25 22 17 14 15 17 17 17 18 18 17 16 15 14 14 14 15 16 15 12 10 9 7 7 8 9 10 10 10 9 9 8 6 4 3 2 3 6 7 7 7 7 9 11 13 15 17 18
17 18 18 18 18 17 17 16 14 12 9 5 3 4 6 7 7 8 9 10 11 12 12 14 17 18 19 19 18 15 14 19 24 25 24 26 27 26 23 18 14 14 15 16 18 19 19 19 17 15 16 17 16 16 14 11 10 9 10 10 9 7 7 7 7 7 8 7 8 8 6 6 7 7 8 9 10 11 12 12 12 11 12 14 15
16 17 16 17 17 16 16 15 15 15 14 13 12 10 7 5 5 6 8 9 10 12 13 14 16 18 20 22 22 20 18 19 24 28 28 28 29 29 26 23 20 18 17 18 19 18 18 18 17 16 16 17 16 16 14 12 10 11 14 13 9 7 7 7 7 8 8 7 7 7 7 8 9 9 10 11 11 11 10 9 8 9 10 12 13
14 15 14 14 14 14 14 14 14 13 14 14 15 15 14 11 9 8 8 9 11 14 15 16 17 18 20 22 24 24 23 20 22 26 27 28 30 31 28 27 25 23 22 22 20 20 20 20 18 17 16 16 17 17 16 15 13 14 15 12 8 6 7 8 8 8 8 7 6 6 7 8 9 10 11 12 11 9 8 7 7 7 8 10 12
13 13 13 13 14 14 13 13 13 12 12 13 13 14 14 14 14 13 12 12 12 14 16 18 19 20 21 23 25 26 26 26 25 26 27 28 29 31 30 27 25 24 24 23 21 21 22 21 20 19 17 16 18 19 19 17 14 14 14 11 9 9 7 5 6 6 4 3 4 6 7 9 10 11 12 11 10 9 8 8 8 7 8 11 13
13 13 13 13 14 14 13 12 13 13 13 14 14 14 14 15 16 16 16 16 15 16 16 16 17 19 20 21 24 26 27 29 29 29 30 31 31 32 31 27 24 23 23 23 22 22 23 20 19 19 18 18 18 19 20 17 13 14 14 11 11 11 8 7 8 6 3 1 4 6 8 10 10 10 10 10 11 12 12 11 10 8 9 11 13
12 12 12 12 12 12 12 13 14 15 15 16 17 17 17 17 17 17 17 17 18 19 19 18 18 18 18 19 22 24 26 29 29 29 31 33 32 32 30 26 22 19 18 19 20 22 22 20 18 17 17 19 19 19 18 14 11 14 14 10 12 14 11 9 8 5 1 3 4 5 6 8 10 11 11 10 8 7 8 8 7 8 9 12 14
11 11 11 11 12 13 13 14 15 16 17 17 18 20 19 19 19 19 19 20 21 22 22 21 21 21 20 19 20 21 24 27 27 27 29 31 30 28 28 26 21 16 17 18 16 16 15 15 15 14 15 18 19 18 16 13 11 12 11 10 13 14 10 6 4 1 2 2 3 5 6 7 9 9 8 4 2 1 4 7 8 11 12 12 13
11 11 12 13 14 14 14 15 16 17 17 17 19 20 20 20 21 21 21 22 22 23 23 23 23 22 22 22 22 22 21 23 27 28 28 28 27 27 27 24 19 19 23 20 14 12 13 14 16 16 17 18 17 15 15 13 11 9 8 7 8 8 5 3 2 2 2 2 4 5 7 8 7 6 6 5 4 6 11 14 12 11 11 10 11
10 11 12 13 14 14 15 15 16 17 17 18 20 21 21 21 21 22 22 22 22 22 23 23 23 23 22 23 24 24 22 22 25 29 29 28 27 27 25 22 20 22 21 16 14 18 19 18 18 18 18 18 17 15 13 12 10 8 7 6 5 4 3 3 2 3 2 2 4 5 5 5 5 6 7 7 8 12 15 14 10 8 8 10 12
10 11 12 13 14 14 15 16 16 16 16 17 18 20 21 21 21 22 22 22 22 23 23 23 24 23 23 23 23 24 25 25 26 28 28 28 28 28 26 25 25 24 19 17 20 23 22 20 21 19 17 16 16 14 12 11 9 7 6 5 5 4 4 3 2 2 1 1 3 3 4 4 4 5 6 7 8 10 11 11 10 10 11 12 13
13 13 14 15 16 16 16 16 17 17 18 17 17 18 19 20 21 22 22 22 23 23 23 24 24 23 23 23 22 20 18 18 22 27 29 29 29 29 29 28 27 26 24 23 24 25 24 25 25 23 18 16 15 13 11 10 9 7 7 7 6 5 4 4 3 2 1 2 3 3 3 4 5 7 8 8 8 9 10 12 13 14 14 14 15
14 15 16 17 17 17 18 18 18 18 18 19 19 19 18 18 20 21 21 22 22 22 23 23 23 24 24 22 18 15 12 9 12 19 26 29 30 31 32 29 28 31 30 26 26 27 29 30 27 24 20 16 13 12 11 10 10 9 9 8 7 6 5 4 3 2 1 1 2 3 3 5 7 7 7 7 8 8 10 11 13 14 14 15 16
14 15 16 16 16 16 16 17 17 17 17 18 20 20 18 17 18 19 21 21 19 18 19 21 22 22 21 17 11 10 10 11 13 16 21 27 29 32 35 35 35 35 32 30 31 33 32 30 26 23 20 17 14 13 12 12 12 10 9 9 7 5 3 3 3 3 3 2 1 3 4 5 6 6 7 8 9 10 11 12 13 14 14 15 15
14 14 14 14 14 14 14 15 15 16 17 18 19 20 20 20 19 20 24 25 25 25 24 23 22 20 13 8 6 5 5 9 14 16 20 25 27 26 27 30 34 37 36 36 38 37 33 30 27 24 21 19 17 15 14 14 12 9 9 9 7 4 4 4 4 4 4 1 1 3 4 4 5 6 7 8 10 11 13 14 14 14 15 15 15
14 13 12 12 13 13 14 15 15 16 17 18 19 20 21 21 20 22 25 27 28 30 28 25 23 18 11 5 3 3 3 7 12 16 20 25 29 27 22 22 29 37 41 42 41 37 32 29 26 24 22 20 18 16 15 15 13 11 9 9 7 6 7 5 4 3 2 1 2 3 3 4 5 6 7 8 10 11 12 13 13 14 14 14 14
13 13 12 13 14 14 15 15 16 16 16 17 18 19 20 20 20 21 23 25 27 29 29 25 22 19 14 8 4 4 5 6 11 18 23 29 35 35 29 26 30 38 42 40 38 34 30 27 23 22 21 19 18 17 17 16 14 12 10 9 7 5 5 5 4 2 1 0 2 2 3 4 5 6 7 9 11 12 12 12 13 13 13 13 13
12 13 13 14 15 15 15 16 16 16 17 17 17 18 18 19 20 20 21 22 24 27 29 26 21 19 18 17 15 12 12 12 10 15 22 29 36 39 36 33 35 38 38 35 33 30 27 25 23 21 20 18 17 17 17 16 15 14 12 11 10 8 6 6 5 2 1 2 2 3 3 4 5 6 8 10 11 11 12 12 12 13 13 13 13
13 13 14 14 15 16 16 16 16 16 16 16 17 17 17 18 19 19 21 22 23 25 27 26 23 21 20 19 17 16 15 15 15 15 18 22 26 30 33 35 36 36 34 30 29 27 24 23 22 20 19 17 16 17 16 14 13 13 11 10 11 11 8 6 3 2 2 1 2 3 3 4 6 7 8 9 10 10 11 12 12 12 12 12 12
14 15 15 16 18 18 17 16 15 15 16 16 16 17 17 17 18 19 19 20 21 22 24 24 22 20 19 17 15 14 15 17 17 17 18 22 22 20 23 28 30 27 26 28 29 26 23 21 20 19 18 16 17 17 15 13 12 12 9 8 10 11 8 5 4 4 2 1 2 2 3 6 7 7 7 8 9 9 10 10 11 11 11 12 13
14 15 15 16 17 17 17 17 17 17 17 16 15 15 16 17 18 19 18 19 20 21 23 23 19 15 13 12 11 11 13 16 15 15 19 26 26 22 22 27 26 21 21 26 27 23 21 20 19 18 17 17 18 16 14 13 13 11 10 9 9 9 8 7 5 3 1 0 1 1 4 6 7 7 7 7 8 8 9 9 10 11 11 12 13
13 14 15 15 15 16 17 18 18 18 17 16 15 16 17 18 18 18 18 20 20 19 20 22 18 12 10 8 9 11 13 15 17 18 20 24 27 27 27 27 23 19 21 25 23 21 19 18 16 16 17 18 18 15 14 14 12 11 11 10 8 9 9 7 5 3 2 2 1 2 4 6 6 7 7 8 8 7 8 9 10 11 12 12 14
13 14 14 14 15 16 16 16 17 17 15 15 16 17 17 17 17 17 18 20 19 19 22 22 14 9 10 10 11 12 13 14 17 19 21 24 28 29 25 19 14 13 19 21 18 18 18 17 16 18 18 18 17 15 14 13 11 11 11 10 9 9 8 5 5 5 4 3 2 4 5 5 6 7 8 8 7 7 8 9 11 12 13 14 16
13 13 12 13 15 16 14 14 15 15 12 11 12 13 14 15 16 17 18 20 20 21 23 20 10 7 10 13 15 15 15 17 18 20 22 23 23 22 21 19 15 13 16 16 15 14 15 16 16 19 19 17 16 15 14 12 10 10 9 8 7 7 4 2 3 4 4 3 3 5 6 5 6 8 9 8 8 9 9 10 12 13 14 15 16
12 12 12 14 16 15 12 11 12 12 10 9 10 12 13 14 15 17 18 19 19 19 18 15 9 6 10 16 18 17 17 18 19 19 21 22 20 19 19 20 17 14 15 15 12 11 12 14 16 18 17 17 17 17 15 12 11 10 9 7 7 6 4 2 3 4 3 3 4 5 6 7 8 8 7 7 8 9 10 10 11 12 14 16 16
12 11 11 13 14 14 12 11 10 10 11 10 10 12 13 14 15 17 19 20 19 17 13 9 4 1 7 15 18 18 17 16 17 17 17 18 19 20 20 19 17 18 18 14 9 10 13 16 17 16 14 14 17 18 16 12 10 8 7 5 5 6 5 4 5 5 4 4 4 4 6 7 7 6 6 6 7 8 9 10 12 14 15 16 16
12 11 11 12 12 13 12 11 11 11 12 11 11 12 13 14 16 18 18 20 19 13 6 5 5 4 6 11 15 14 11 11 13 15 15 16 19 21 20 19 20 21 18 12 11 13 17 18 16 13 12 14 17 18 16 12 9 7 6 6 6 7 6 6 5 4 4 4 3 5 6 6 6 6 6 6 6 7 8 10 13 14 15 15 15
11 11 11 11 11 11 12 13 13 12 12 11 11 11 13 15 17 17 17 16 13 5 4 7 5 5 7 9 11 10 7 8 12 14 15 17 20 20 19 19 18 16 12 11 13 18 20 18 16 13 12 14 15 15 14 11 8 8 8 9 8 8 8 8 7 5 4 2 3 5 6 6 6 7 6 6 7 7 8 10 12 13 13 14 15
9 10 10 11 11 11 12 13 14 13 12 11 10 11 14 15 14 14 13 9 1 6 8 8 6 8 9 9 8 7 8 9 12 14 16 18 19 17 17 18 15 11 9 12 19 21 20 18 17 16 14 13 13 13 12 11 10 10 10 9 8 7 6 6 5 3 2 1 2 4 6 6 6 6 6 6 7 8 10 12 12 12 12 13 15
8 8 9 10 11 12 12 13 14 14 13 12 11 12 14 13 12 11 10 9 11 12 11 10 10 11 12 10 9 11 13 15 15 16 17 18 17 16 17 17 15 13 15 18 20 20 20 20 20 18 17 17 17 16 15 13 12 12 11 9 8 6 4 3 2 2 2 2 2 3 5 5 5 5 6 6 7 10 13 12 11 11 13 14 15
8 9 9 9 10 10 11 14 18 17 13 10 10 10 11 11 11 12 11 13 15 14 13 12 12 13 13 12 13 15 18 20 19 17 17 17 18 19 21 20 19 18 19 19 17 16 18 20 19 17 16 15 15 15 14 12 10 10 10 9 7 6 4 3 3 3 2 3 3 3 3 4 4 4 5 7 9 11 13 12 11 13 14 15 16
8 8 8 8 9 9 10 14 19 19 14 11 10 10 11 13 12 11 12 14 15 14 14 13 14 15 15 14 15 19 21 22 21 20 19 19 21 22 22 22 21 20 20 18 17 17 17 18 18 17 16 14 12 11 11 10 9 8 7 7 6 6 5 4 3 3 3 3 4 4 4 3 3 3 5 8 10 11 12 13 13 13 15 16 16
9 9 8 7 7 8 9 13 16 18 16 15 14 14 15 15 13 12 12 14 14 14 14 13 14 16 17 17 17 20 21 22 22 22 20 20 20 21 22 22 21 20 18 17 19 20 20 19 18 19 18 17 15 14 12 11 9 7 5 5 5 5 5 4 3 3 4 4 5 5 5 6 6 5 6 10 11 11 11 12 11 13 15 16 15
9 9 8 8 8 8 9 11 12 13 15 16 16 16 16 15 14 14 13 13 14 14 13 13 15 17 19 20 20 21 22 23 23 22 21 20 19 20 21 21 20 18 18 18 18 19 19 18 17 16 16 15 14 13 12 10 8 6 4 4 3 4 5 4 3 3 4 4 5 6 7 8 8 8 9 11 11 11 11 11 12 13 15 15 13
9 9 8 8 9 8 9 9 10 10 11 12 13 14 15 14 15 16 15 13 14 15 15 15 16 16 18 21 23 23 23 24 23 23 22 20 19 19 19 18 17 17 19 20 19 18 17 16 15 14 13 11 10 9 8 6 5 4 4 4 3 3 4 5 4 4 4 4 5 7 8 8 9 9 10 10 10 11 12 13 13 14 13 12 13
9 9 9 9 9 8 9 8 9 10 11 11 12 13 14 15 16 17 16 14 14 15 16 17 17 16 18 20 22 23 23 23 23 21 20 18 17 17 17 16 15 14 15 16 16 16 15 14 13 14 13 11 8 7 6 5 4 3 4 4 3 2 4 5 5 5 5 5 6 7 8 9 10 11 10 10 11 12 13 13 14 14 12 12 15
8 9 9 9 9 9 9 9 9 10 12 13 12 13 13 14 15 17 18 17 16 17 18 18 17 18 18 20 22 22 22 22 21 20 19 18 18 17 16 15 14 13 12 12 12 12 12 11 10 11 12 9 7 6 5 4 3 3 4 4 3 2 3 6 7 7 6 6 7 8 10 11 12 11 10 11 13 12 11 13 14 13 12 13 15
Wind_Direction
129 122 125 131 136 141 146 149 150 153 156 157 156 154 154 153 154 155 155 154 152 149 151 151 144 138 137 137 136 136 135 133 133 133 133 136 135 135 135 132 129 127 125 123 118 115 111 104 99 100 103 104 103 107 105 91 95 113 102 94 87 67 86 107 121 131 121 125 136 131 113 105 136 151 118 35 351 359 318 250 326 351 346 351 351
123 126 126 128 137 145 148 152 154 155 156 156 157 156 155 158 161 159 159 163 161 158 162 162 155 151 148 145 143 142 142 140 139 140 140 139 138 139 140 134 130 131 128 123 119 118 116 113 106 103 112 114 93 114 135 147 147 131 106 95 93 73 68 96 126 147 151 149 155 161 157 122 128 181 194 316 337 351 334 272 307 335 320 329 333
128 133 135 135 141 145 150 156 157 156 157 157 158 159 158 160 164 162 160 165 167 168 171 167 164 162 154 149 150 149 149 148 146 145 142 141 143 142 140 137 134 136 132 124 123 123 119 118 115 111 114 98 50 85 111 32 58 97 94 89 89 74 36 24 82 145 159 166 176 175 171 186 218 166 186 284 293 350 3 321 303 305 290 326 333
139 142 141 143 148 150 154 160 162 161 161 161 161 160 161 163 165 166 166 169 175 178 175 171 171 170 160 156 158 156 156 156 154 152 150 151 150 138 136 139 140 141 140 135 134 132 127 124 120 115 105 84 65 68 37 345 25 83 105 120 135 151 201 344 18 108 146 161 185 174 161 198 244 174 156 293 234 38 350 312 300 336 14 13 357
155 155 147 147 155 161 166 170 170 167 166 167 165 161 164 167 169 173 175 176 181 180 173 173 178 175 169 167 166 164 166 165 162 162 160 161 157 145 143 147 148 153 151 144 143 141 140 139 133 130 120 103 102 62 12 320 342 24 55 96 157 171 184 359 10 13 65 98 204 171 148 248 286 288 345 2 357 4 335 304 330 21 9 6 4
162 155 148 149 157 167 174 176 173 170 170 171 169 164 165 168 172 179 180 177 180 180 176 180 186 183 178 178 175 172 174 176 175 174 172 170 167 160 158 160 161 160 148 140 144 144 143 146 141 142 143 138 171 305 351 346 332 343 351 8 70 156 176 149 328 302 306 151 230 245 248 268 282 298 326 334 327 341 358 349 360 3 354 355 355
159 151 149 154 165 172 174 174 172 169 170 174 175 173 169 169 177 185 186 183 181 183 186 188 190 190 188 189 188 182 181 185 186 182 178 178 177 173 169 168 167 159 151 149 151 146 144 150 148 153 162 159 207 270 290 281 289 296 302 324 348 306 267 271 273 293 296 250 228 227 244 255 252 250 266 295 315 347 13 1 351 346 344 345 342
155 152 154 158 167 170 168 170 170 168 174 179 179 179 178 180 187 192 194 191 185 187 194 196 196 197 198 198 199 196 191 192 193 190 187 185 183 180 175 173 172 165 163 164 159 160 166 161 146 149 177 185 204 230 242 252 261 271 277 285 292 296 296 284 263 292 310 311 294 275 254 254 254 235 229 259 334 9 359 344 332 328 329 328 327
143 144 147 150 157 160 158 161 164 166 173 180 181 185 188 190 193 200 205 202 195 192 195 202 203 205 210 208 205 205 201 199 200 196 193 191 188 186 183 181 181 175 171 171 168 172 179 172 162 175 202 222 250 249 250 253 250 248 250 262 268 271 281 283 266 280 301 300 291 287 270 259 268 240 207 254 11 345 327 325 321 322 322 317 315
77 101 123 132 138 144 146 149 156 164 172 181 190 193 197 200 202 208 211 206 203 202 205 211 211 210 217 218 214 211 206 205 207 202 196 194 190 189 190 188 186 181 177 181 183 184 190 194 196 202 213 237 252 249 251 254 251 250 247 246 247 246 256 261 247 257 280 278 279 295 314 312 313 310 284 349 45 26 358 355 336 327 322 315 311
51 59 114 129 123 126 132 136 144 158 171 184 195 193 196 206 209 212 216 214 212 213 215 222 223 219 220 222 222 219 212 209 211 205 200 198 193 191 192 189 183 174 166 168 179 183 188 197 206 218 240 263 261 250 252 256 252 250 246 243 245 244 246 248 237 239 262 278 292 313 337 355 3 9 33 74 84 68 24 351 333 327 323 318 316
109 92 102 102 100 112 122 122 130 151 166 179 193 195 198 207 209 210 220 228 227 223 222 227 231 232 232 231 231 231 222 215 215 211 205 201 196 195 195 193 192 183 175 178 187 191 200 211 222 237 254 262 253 244 247 253 254 253 246 239 240 241 242 241 231 227 243 273 330 347 8 41 40 29 25 39 35 4 344 333 330 328 324 322 319
89 68 63 66 59 73 100 96 76 99 148 168 195 218 224 225 224 221 225 231 233 231 230 230 231 233 235 234 239 251 231 207 211 216 212 205 201 199 197 198 203 200 197 204 207 208 217 222 223 232 240 239 238 239 246 253 254 255 248 236 235 236 237 236 232 234 240 232 11 15 15 52 57 41 351 342 338 334 333 327 322 318 314 313 307
55 48 50 50 39 41 66 70 44 30 17 23 342 277 265 252 246 244 240 238 236 233 232 233 232 232 233 234 240 253 234 204 207 214 213 209 205 201 197 201 210 213 215 223 223 218 220 221 217 216 216 222 228 230 238 246 243 239 242 238 233 233 234 235 235 238 245 244 240 294 288 222 78 41 318 319 330 334 329 319 313 308 305 302 300
46 37 34 32 29 31 37 38 36 25 341 272 215 239 244 238 239 241 235 230 232 232 232 236 237 234 234 236 238 238 228 214 213 217 216 213 210 204 202 205 216 225 229 230 225 222 223 221 217 214 211 216 221 218 222 228 223 220 224 218 213 217 220 227 233 233 235 234 228 221 224 242 268 292 300 310 312 304 297 296 297 300 303 304 304
37 30 24 19 18 20 22 21 19 10 356 341 289 255 244 236 240 243 239 236 237 235 228 233 242 243 238 238 239 238 230 218 217 222 224 220 217 214 215 218 223 230 231 224 219 223 224 217 213 214 205 200 205 208 205 201 200 193 179 174 183 191 198 208 208 202 200 200 207 218 235 262 282 293 300 304 299 294 295 297 300 310 316 314 311
28 23 18 12 9 9 10 9 6 0 353 346 343 341 328 292 271 260 252 247 247 244 235 232 240 243 241 241 242 241 237 227 222 225 227 227 225 223 225 231 235 235 234 228 224 224 219 208 208 211 197 188 202 212 199 184 181 174 164 166 178 185 190 197 193 190 199 208 218 237 259 277 290 299 304 307 306 304 308 314 320 325 320 311 306
19 15 10 4 359 358 359 357 351 344 338 334 336 340 339 332 320 303 283 264 254 256 256 251 248 248 248 247 245 241 237 231 227 227 229 230 230 230 234 241 244 243 238 232 226 217 203 193 196 203 199 200 215 216 199 184 177 172 167 164 172 188 192 195 200 205 214 229 248 267 282 292 299 305 313 319 320 315 315 320 322 322 316 304 298
8 3 358 353 348 346 345 341 334 327 321 320 321 322 321 319 315 311 306 293 274 263 260 255 251 252 253 251 247 243 237 231 227 226 227 230 233 238 241 241 242 242 233 221 212 203 193 186 189 195 195 201 209 204 193 186 178 172 173 171 181 206 210 187 186 200 209 242 284 298 307 311 312 317 324 328 321 308 301 299 295 299 299 292 291
0 354 347 344 338 333 327 322 319 317 312 310 309 306 304 302 300 298 297 294 286 276 269 262 253 249 247 244 244 246 244 238 233 230 232 236 238 241 239 235 236 237 224 205 193 189 186 180 178 181 182 187 195 193 187 183 175 170 176 178 177 186 191 174 160 160 169 255 292 297 304 304 302 305 307 300 289 281 283 286 282 282 296 305 311
353 346 338 333 326 321 318 314 312 309 304 301 299 296 293 291 288 286 285 283 281 278 275 273 267 260 251 241 236 239 242 240 236 235 238 241 242 238 232 228 235 235 215 194 183 181 182 177 169 168 172 176 183 185 180 177 170 166 170 167 151 149 157 168 170 173 241 301 292 288 292 287 281 282 283 283 279 273 281 290 281 275 297 321 327
342 335 330 326 321 319 316 312 309 305 300 296 294 290 287 283 281 280 279 277 276 276 274 271 267 263 257 246 237 233 231 230 231 234 237 238 239 236 226 223 229 217 183 166 160 163 174 182 180 177 175 175 179 181 178 174 168 161 160 155 148 146 148 158 168 206 309 318 306 300 302 300 294 293 298 313 24 26 318 313 300 292 302 316 322
336 331 328 323 320 318 314 311 308 305 301 299 296 292 288 283 279 275 274 273 271 270 270 267 263 259 255 252 249 244 235 229 230 233 234 232 230 228 222 219 218 197 172 158 155 165 178 189 190 188 185 181 180 180 179 179 177 171 170 169 169 174 173 159 168 220 234 270 301 301 297 298 304 313 321 324 325 318 313 309 307 313 321 319 315
327 323 320 315 313 313 310 307 305 302 301 301 300 297 294 290 285 280 275 273 271 269 268 265 261 257 252 248 247 247 244 237 230 229 229 227 221 218 213 201 189 183 176 167 170 179 184 188 190 190 187 183 181 181 182 184 186 189 193 197 203 205 179 157 196 226 222 254 284 285 290 304 325 336 331 317 308 315 318 312 308 321 326 316 312
311 309 306 304 303 302 300 300 300 299 299 299 297 298 299 296 292 287 281 276 272 270 268 265 263 259 253 246 243 245 245 240 231 227 226 223 217 210 200 188 182 183 181 177 183 188 189 190 190 190 187 181 177 177 176 176 179 185 185 181 172 152 136 146 187 209 215 292 302 311 329 343 339 325 320 316 315 326 332 327 324 330 329 325 322
311 310 306 304 303 302 300 299 298 299 300 299 295 293 294 295 294 291 286 282 278 275 272 269 266 264 262 255 246 243 242 234 225 221 218 214 211 203 192 185 184 184 180 180 188 193 190 187 186 185 184 180 175 171 167 164 163 161 156 150 140 138 155 170 162 143 96 358 356 2 355 339 322 313 314 318 323 330 333 333 334 336 336 333 328
318 314 308 305 304 303 301 299 300 300 298 297 294 289 285 287 291 292 290 285 281 278 278 279 276 271 270 268 259 251 250 236 223 219 210 203 201 198 192 187 183 181 181 185 191 188 181 177 178 176 175 173 168 162 159 154 149 146 143 141 140 152 172 176 153 131 124 45 15 360 335 321 317 315 316 320 326 333 339 344 345 343 338 335 330
322 313 307 305 303 303 302 302 303 301 296 294 296 295 293 291 290 291 293 295 298 299 299 303 303 291 277 273 272 259 240 222 217 219 211 203 198 195 193 190 185 184 184 184 182 178 171 167 167 167 167 165 158 153 152 148 143 141 142 149 162 179 171 125 89 108 138 138 9 326 315 311 313 319 327 333 342 348 351 350 347 341 336 332 327
317 310 308 305 303 304 304 303 303 301 299 298 297 296 298 300 299 295 293 294 302 308 305 303 309 312 305 290 280 260 218 199 204 212 211 204 197 192 189 186 184 184 183 178 172 166 161 161 162 161 161 161 156 152 152 149 147 150 156 161 169 172 147 117 97 117 140 144 327 309 300 304 315 326 333 338 342 345 346 342 339 334 330 326 321
310 307 308 307 306 307 305 301 300 300 299 299 297 295 296 298 298 297 296 295 299 303 300 291 288 296 310 322 296 262 233 206 205 215 220 210 199 190 185 185 183 178 174 170 165 158 155 156 159 158 159 161 161 161 161 157 157 163 166 162 154 143 136 130 120 116 109 359 312 285 286 310 324 328 336 343 345 343 339 333 329 325 320 318 315
309 306 305 307 310 311 307 302 301 300 297 296 297 297 297 297 294 293 297 300 301 304 304 295 281 273 271 273 286 299 294 255 219 217 220 213 201 189 181 184 183 174 166 160 155 151 150 152 156 160 161 163 167 170 167 165 164 165 161 156 156 151 142 147 152 138 97 295 272 284 302 318 327 335 345 348 343 337 332 328 326 324 321 319 317
310 306 305 309 313 314 309 304 302 300 298 297 297 296 297 300 299 298 300 303 305 307 307 298 281 267 262 263 268 279 292 293 262 221 206 202 199 192 187 187 184 174 167 159 149 145 148 153 157 163 164 168 175 174 168 167 170 167 161 159 160 159 157 164 179 200 198 199 271 311 313 321 337 349 351 346 339 336 335 333 332 330 326 322 321
311 307 307 309 309 309 307 304 300 297 295 294 295 296 297 298 299 303 307 307 306 309 310 300 284 273 269 269 270 272 273 276 270 246 217 202 195 188 184 181 175 169 166 157 145 142 149 155 157 163 170 175 176 167 161 162 164 160 157 156 156 155 155 158 165 166 166 194 306 313 313 336 348 348 344 340 336 334 333 330 328 327 325 323 323
313 310 309 306 304 302 299 296 294 292 293 292 292 292 294 295 297 302 307 310 310 311 312 305 290 277 273 274 273 269 259 253 255 246 219 199 190 184 175 167 163 164 163 153 143 144 152 155 158 168 176 172 160 153 153 156 156 152 149 146 146 147 144 135 131 139 157 242 292 306 334 345 342 337 333 330 328 327 329 329 329 330 329 328 328
316 312 312 313 312 307 301 296 290 285 284 285 288 290 291 293 297 301 304 307 306 304 308 311 304 286 272 264 253 240 228 221 217 209 194 187 189 193 182 167 163 166 158 146 142 146 152 156 163 170 167 155 148 148 151 152 152 153 154 151 144 139 135 130 127 120 67 311 237 299 344 346 340 338 338 334 331 332 335 336 337 338 337 335 332
326 323 322 323 321 316 308 302 296 288 280 275 279 288 290 292 296 298 296 295 293 294 306 314 306 274 241 216 197 192 191 187 181 175 174 174 176 177 172 168 169 163 143 134 138 146 153 159 162 158 148 143 144 148 150 150 152 156 156 154 146 135 132 133 126 95 41 21 14 355 350 342 333 330 330 329 331 339 346 350 351 347 342 336 328
334 332 327 326 326 321 315 312 310 304 291 279 278 283 288 291 295 296 295 294 294 299 308 309 292 235 195 175 164 162 166 170 167 162 160 161 162 163 165 169 170 146 126 125 135 147 154 159 156 146 142 142 144 148 148 149 153 153 146 143 142 139 138 137 120 90 63 47 22 357 349 342 336 337 338 340 350 5 7 1 350 338 330 325 320
339 337 333 336 335 328 321 322 324 320 307 292 286 286 289 294 297 298 297 295 294 297 301 297 274 208 185 179 170 160 156 157 156 155 155 156 157 158 161 163 157 137 123 122 127 139 153 157 149 141 141 143 145 149 149 145 146 147 141 139 145 149 154 168 141 102 72 51 21 1 357 354 350 350 352 360 12 15 4 349 336 328 326 324 320
341 342 341 341 338 332 327 325 325 323 315 304 299 297 296 296 295 294 293 291 289 294 298 292 270 228 200 189 182 176 171 167 163 160 158 157 158 158 157 157 155 150 141 136 137 147 155 150 139 138 145 150 150 150 147 139 135 139 142 148 158 158 150 126 120 114 89 50 24 5 352 344 343 346 354 2 5 359 349 340 334 331 328 323 318
340 342 344 341 338 338 336 329 327 328 319 309 307 305 302 300 299 298 298 297 297 303 313 319 322 193 182 186 184 179 174 174 179 177 169 164 164 166 166 166 166 161 155 155 172 178 159 143 138 141 149 153 151 147 142 135 131 136 146 149 144 134 118 98 100 101 77 47 24 348 333 335 344 350 352 355 355 354 352 346 339 335 330 323 318
338 338 345 346 343 344 340 333 330 327 318 313 313 309 303 303 303 302 306 310 309 313 344 34 55 95 157 182 183 174 165 170 178 176 167 161 162 164 167 169 167 165 168 184 197 174 147 135 136 137 131 130 134 134 130 125 126 135 140 131 117 109 99 95 100 90 61 42 4 330 334 350 354 344 341 354 9 11 360 344 337 336 335 330 328
344 339 346 352 352 350 343 335 331 326 319 316 313 306 305 307 303 304 315 320 314 317 73 77 83 117 142 158 164 159 156 166 170 168 164 163 162 162 164 162 160 168 187 193 169 148 134 127 128 125 112 111 118 119 119 121 127 131 128 120 112 104 91 85 88 84 69 48 339 333 352 4 353 344 354 17 25 15 355 338 334 336 335 335 339
360 349 350 357 359 352 344 337 333 329 325 323 319 314 315 312 305 313 335 349 42 121 99 84 91 110 118 123 123 113 110 128 147 156 160 161 159 158 157 155 152 156 160 145 133 129 127 126 125 121 115 114 118 119 120 120 117 115 113 112 114 115 105 92 92 95 86 48 342 350 360 358 350 357 15 24 16 358 342 333 334 340 346 349 349
18 5 359 2 359 352 349 348 344 334 328 330 334 330 328 325 324 339 14 70 107 107 96 95 98 96 94 93 95 100 106 114 124 134 143 148 148 145 146 150 149 142 132 124 120 123 128 130 128 124 120 119 120 121 121 119 114 109 107 108 114 120 118 111 114 108 72 44 26 10 360 355 3 21 25 16 360 346 340 341 350 1 3 358 347
35 18 6 5 360 354 355 357 354 347 342 347 352 349 353 2 4 12 46 84 96 91 87 90 88 84 87 92 97 104 109 110 110 113 120 126 128 127 129 135 135 128 121 119 123 129 131 129 126 121 116 114 117 118 117 117 119 117 113 108 104 96 91 97 111 105 82 59 39 21 2 357 12 25 14 1 351 345 348 359 10 7 357 347 338
49 30 12 7 4 1 1 2 2 2 5 11 14 17 26 35 38 45 64 79 84 81 80 80 80 84 92 97 99 102 105 105 103 103 105 108 111 112 115 119 118 115 115 119 127 131 130 127 125 121 114 109 108 107 102 101 107 112 105 94 82 70 68 82 101 104 95 70 35 20 25 38 47 40 12 359 355 355 0 8 10 0 347 338 336
53 38 24 17 9 3 3 3 7 12 17 20 23 25 28 33 41 51 65 78 84 83 78 79 86 93 95 96 97 100 103 104 104 103 102 101 102 105 109 110 110 111 113 116 120 124 127 129 129 126 118 111 106 102 101 106 116 119 103 80 70 59 52 60 82 92 89 67 32 24 44 60 60 45 13 360 359 1 1 1 1 356 348 341 342
56 43 35 28 18 14 11 7 9 17 23 26 28 29 28 31 36 40 50 74 91 91 87 89 95 95 95 97 98 99 101 103 103 103 103 102 102 106 109 108 107 109 113 113 115 119 123 126 127 126 123 118 115 115 118 125 131 124 92 61 61 53 37 38 58 80 78 61 39 39 54 56 45 26 10 3 2 1 353 346 346 349 349 351 360
60 49 42 36 30 26 19 14 16 23 28 31 34 33 30 32 37 39 45 66 88 94 95 98 99 95 94 99 102 103 104 104 101 98 100 101 104 109 113 112 111 112 112 111 112 115 116 117 119 122 122 119 122 130 133 130 121 104 70 46 51 50 29 27 45 69 70 56 45 49 56 52 37 24 16 9 3 356 347 342 344 348 352 5 17
77 66 53 45 43 40 32 30 33 34 33 36 40 42 41 40 42 46 51 63 82 94 97 100 101 100 100 103 106 107 107 106 101 99 100 103 106 111 116 117 116 114 111 108 112 119 122 122 121 120 117 115 126 142 137 113 91 73 47 35 39 40 24 26 40 56 62 56 48 48 51 44 35 30 25 15 4 354 347 349 355 359 9 23 23
83 84 73 60 55 51 47 47 43 39 40 44 45 48 52 51 51 56 62 67 78 91 98 102 104 106 105 106 106 106 107 106 104 102 104 107 108 110 110 106 104 102 97 92 94 102 107 110 114 118 121 127 142 145 126 102 77 42 26 23 24 23 24 29 35 44 53 54 47 44 44 39 33 29 22 13 6 358 353 356 1 9 22 28 18